Regional Weather Roundup
Issued by NWS

Home | Current Version | Previous Version | Text Only | Print | Product List | Glossary On
Versions: 1 2 3 4 5 6 7 8 9 10 11 12 13 14 15 16 17 18 19 20 21 22 23 24 25 26 27 28 29 30 31 32 33 34 35 36 37 38 39 40 41 42 43 44 45 46 47 48 49 50
028
ASUS44 KLIX 132112
RWRLA
LOUISIANA WEATHER ROUNDUP
NATIONAL WEATHER SERVICE NEW ORLEANS LA
300 PM CST WED DEC 13 2017

NOTE: "FAIR" INDICATES FEW OR NO CLOUDS BELOW 12,000 FEET WITH NO
      SIGNIFICANT WEATHER AND/OR OBSTRUCTIONS TO VISIBILITY.
      SKY/WX - SKY CONDITION AND SIGNIFICANT WEATHER.
      TMP - AIR TEMPERATURE.    DP   - DEWPOINT TEMPERATURE.
      RH  - RELATIVE HUMIDITY.  PRES - PRESSURE.
      HX  - HEAT INDEX.         WCI  - WIND CHILL INDEX.

*  THESE STATIONS ARE NOT NWS OR FAA STATIONS AND ARE NOT UNDER
   NWS QUALITY CONTROL.

LAZ040-048-061>063-065-066-069-132200-
SOUTHEAST LOUISIANA

CITY           SKY/WX    TMP DP  RH WIND       PRES   REMARKS
N.O. INTL ARPT PTSUNNY   62  32  32 SW9       30.06F
N.O. LAKEFRONT MOSUNNY   59  35  40 SW12      30.07F
N.O. DOWNTOWN* FAIR      60  30  32 SW10G17   30.08F
RESERVE*       FAIR      63  32  30 SW9       30.06F
SLIDELL        MOSUNNY   57  29  34 S9        30.07F
BATON ROUGE    PTSUNNY   59  31  34 SW12      30.05F
BOOTHVILLE     PTSUNNY   60  36  40 SW9       30.10S
BELLE CHASSE   CLOUDY    59  32  36 W9        30.08
BOGALUSA*      NOT AVBL
GALLIANO*      PTCLDY    58  33  37 SW12G17   30.09F
NEW ROADS*     FAIR      58  30  34 SW6       30.05F
GONZALES*      FAIR      61  31  31 W8        30.06F
HAMMOND*       CLOUDY    59  32  36 S6        30.05F
HOUMA*         SUNNY     61  32  33 SW8       30.08F
PORT FOURCHON* CLEAR     57  37  47 W7        30.11S

$$

LAZ041-044-053-054-132200-
SOUTHWEST LOUISIANA

CITY           SKY/WX    TMP DP  RH WIND       PRES   REMARKS
LAKE CHARLES   CLOUDY    58  38  47 W7        30.05F
LAFAYETTE      MOSUNNY   59  35  40 SW13      30.06F
PATTERSON      SUNNY     59  41  51 SW12      30.08F
SALT POINT       N/A     58  41  53 VRB3      30.07F
NEW IBERIA     MOSUNNY   61  34  36 SW13      30.06F
CHENAULT AIRPK NOT AVBL

$$

LAZ027-028-132200-
CENTRAL LOUISIANA

CITY           SKY/WX    TMP DP  RH WIND       PRES   REMARKS
FORT POLK      CLOUDY    56  29  35 SW5       30.02F
ALEXANDRIA INT PTSUNNY   57  28  33 SW13      30.01F
ALEXANDRIA     SUNNY     60  27  28 S10       30.02F

$$

LAZ001-002-132200-
NORTHWEST LOUISIANA

CITY           SKY/WX    TMP DP  RH WIND       PRES   REMARKS
SHREVEPORT     MOSUNNY   65  26  23 SW12      29.95F
BARKSDALE AFB  SUNNY     65  26  23 S13       29.95F
DTN SHREVEPORT SUNNY     66  27  23 SW10      29.95F

$$

LAZ014-016-132200-
NORTHEAST LOUISIANA

CITY           SKY/WX    TMP DP  RH WIND       PRES   REMARKS
MONROE         SUNNY     63  27  25 SW13      29.98S
TALLULAH       SUNNY     60  26  27 S10G18    29.99S

$$





USA.gov is the U.S. government's official web portal to all federal, state and local government web resources and services.